Temperature
16 17 17 17 17 18 19 21 23 22 22 21 21 21 20 19 19 17 15 15 15 15 15 15 15 15 15 15 15 15 15 15 15 15 15 15 15 15 15 15 15 14 14 14 14 14 14 14 14
16 16 17 17 17 18 19 21 21 21 20 20 20 21 21 19 17 16 14 14 14 14 14 15 15 14 14 14 14 14 14 14 15 15 15 15 15 14 14 14 14 14 14 14 14 14 14 14 14
16 16 17 17 18 19 20 21 20 20 20 20 20 20 19 17 16 15 14 14 14 14 14 14 14 14 14 14 14 14 14 14 14 14 14 14 14 14 14 14 14 14 14 14 14 14 14 14 14
16 16 18 17 18 20 20 20 20 20 20 20 20 19 17 16 15 15 14 14 14 14 14 14 14 14 14 14 14 14 14 14 14 14 14 14 14 14 14 14 14 14 14 14 14 14 14 14 14
16 17 17 17 18 20 20 20 20 20 20 20 19 18 16 15 15 15 14 14 13 13 13 13 13 14 14 13 13 14 14 14 14 14 14 14 14 14 14 14 14 13 13 13 13 13 14 14 14
16 17 17 17 19 20 20 20 20 20 20 19 19 18 15 15 15 14 14 13 13 13 13 13 13 13 13 13 13 13 13 13 13 13 13 13 14 14 14 13 13 13 13 13 13 13 13 14 14
16 16 17 18 18 19 19 19 19 19 19 19 18 17 15 14 14 14 13 13 13 13 13 13 13 13 13 13 13 13 13 13 13 13 13 13 13 13 13 13 13 13 13 13 13 13 13 13 13
15 16 17 18 18 18 19 19 18 18 18 17 17 16 15 14 14 13 13 13 12 12 12 12 12 12 12 12 13 13 13 13 13 13 13 13 13 13 13 13 13 13 13 13 13 13 13 13 13
15 15 16 17 18 18 18 18 17 17 17 16 16 15 14 14 13 13 13 12 12 12 12 12 12 12 12 12 12 12 12 12 12 12 12 12 12 12 12 12 12 12 12 12 12 12 12 12 12
15 14 16 17 17 17 17 17 17 16 16 15 15 14 14 14 13 13 12 12 12 12 12 11 11 12 12 12 12 12 12 12 12 12 12 12 12 12 12 12 12 12 12 12 12 12 12 12 12
15 14 16 16 16 16 16 16 16 16 15 15 15 14 13 13 13 12 12 12 12 12 11 11 11 11 11 11 11 11 11 11 11 11 12 12 12 11 11 12 12 11 12 12 11 11 11 12 12
15 15 15 15 15 15 15 15 15 15 15 15 14 14 13 12 12 12 12 12 11 11 11 11 11 11 11 11 11 11 11 11 11 11 11 11 11 11 11 11 11 11 11 11 11 11 11 11 11
14 14 14 14 14 14 14 14 14 14 14 14 13 13 13 12 12 12 11 11 11 11 11 11 11 11 11 11 11 11 11 11 11 11 11 11 11 11 11 11 11 11 11 11 11 11 11 11 10
14 14 14 14 14 13 13 14 14 13 13 13 13 13 12 12 11 11 11 10 10 10 10 10 10 10 10 11 11 10 10 10 10 10 10 10 10 10 10 10 10 10 10 10 10 10 10 10 10
13 12 13 13 14 14 13 12 12 13 13 13 12 12 12 11 11 11 11 10 10 10 10 10 10 10 10 10 10 10 10 10 10 10 10 10 10 10 10 10 10 10 10 9 10 10 9 10 10
13 12 12 13 13 13 12 11 13 14 13 13 12 12 11 11 11 10 10 10 10 10 10 10 10 10 10 10 10 10 9 9 10 10 10 9 9 9 9 9 9 9 9 9 9 9 9 9 9
12 11 12 13 13 13 12 11 13 13 13 12 12 12 11 11 10 10 10 9 9 9 9 9 9 9 9 9 9 9 9 9 9 9 9 9 9 9 9 9 9 8 8 8 8 8 8 8 8
11 12 13 13 12 12 11 11 12 13 12 12 12 12 11 11 10 10 9 9 9 9 9 9 9 9 9 9 8 8 8 8 8 8 9 8 8 8 8 8 8 8 8 8 8 8 8 8 8
12 12 12 12 12 11 11 11 12 12 12 12 12 12 11 10 10 9 9 9 8 8 8 8 8 8 8 8 8 8 8 8 8 8 8 8 8 8 8 8 7 7 7 7 7 7 7 7 7
11 11 11 11 12 11 10 10 11 12 11 12 12 11 11 10 10 9 9 8 8 8 8 8 8 8 8 7 7 7 7 7 7 7 7 7 7 7 7 7 7 7 7 7 7 7 7 7 7
11 10 10 10 10 10 10 9 10 11 12 12 11 11 10 10 9 9 8 8 8 7 7 7 7 7 7 7 7 7 6 6 6 7 7 7 7 7 7 7 7 6 6 7 6 6 6 6 6
9 10 10 9 8 8 10 8 10 10 10 10 10 10 10 9 9 8 8 7 7 7 7 7 7 7 7 7 7 6 6 6 6 6 6 6 6 6 6 6 6 6 6 6 6 6 6 6 6
9 9 9 9 8 7 9 8 9 10 9 9 10 10 9 9 8 8 7 7 7 7 7 7 7 6 6 6 6 6 6 6 6 6 6 6 6 6 6 6 5 6 5 5 5 5 5 5 5
8 8 8 8 7 6 8 8 9 9 9 9 9 9 8 8 7 7 7 6 6 6 6 6 6 6 6 6 6 6 6 6 5 5 5 5 5 5 5 5 5 5 5 5 5 5 5 5 5
8 7 7 7 6 7 8 8 8 10 9 8 8 8 8 7 7 6 6 6 6 6 6 6 6 5 5 5 5 5 5 5 5 5 5 5 5 5 5 5 4 4 4 4 4 4 4 4 4
7 7 6 7 7 8 7 7 8 9 8 8 8 7 7 6 6 5 5 5 5 5 5 5 5 5 5 5 5 5 5 5 4 4 4 4 4 4 4 4 4 4 4 4 4 4 4 4 4
7 6 7 6 6 6 7 8 8 8 7 7 7 7 6 5 5 5 5 5 5 4 4 4 4 4 4 4 4 4 4 4 4 4 4 4 4 4 4 4 4 3 3 4 3 4 3 3 3
7 7 5 5 6 7 8 8 7 6 6 6 6 6 5 5 5 4 4 4 4 4 4 4 4 4 4 4 4 4 4 4 4 4 3 3 3 3 3 3 3 3 3 3 3 3 3 3 3
5 5 5 5 6 6 6 7 8 7 6 5 5 5 5 5 4 4 4 4 3 3 3 3 3 3 3 3 3 3 3 3 3 3 3 3 3 3 3 3 3 3 3 2 2 2 2 2 2
6 6 5 5 5 5 5 6 7 6 6 6 5 5 5 4 4 4 3 3 3 3 3 3 3 3 3 3 2 2 2 2 2 2 2 2 2 2 2 2 2 2 2 2 2 2 2 2 2
Wind_Speed
13 10 5 2 3 4 5 4 1 4 3 5 6 4 5 6 5 6 4 5 7 8 10 10 10 9 9 9 9 9 9 9 9 9 9 9 9 10 9 9 9 10 11 11 11 11 12 12 12
11 7 3 3 4 5 4 4 2 5 5 4 4 3 3 4 6 7 5 5 6 8 10 9 10 9 9 9 9 9 9 9 9 9 8 9 9 9 9 9 9 9 10 10 11 11 12 12 11
9 7 3 3 4 4 2 3 6 6 5 2 2 3 4 4 6 5 5 5 6 8 10 9 10 9 9 9 8 9 9 9 8 8 8 8 8 8 8 8 9 9 9 9 10 11 11 10 10
4 3 4 5 6 4 2 3 5 4 3 0 1 3 3 5 4 6 6 5 6 7 9 9 10 9 8 8 8 8 8 8 8 8 7 7 7 7 7 8 8 8 8 8 9 10 10 9 8
3 3 5 6 6 4 2 4 2 1 2 1 0 2 3 4 9 8 6 5 6 7 8 9 9 9 9 8 7 7 7 7 8 7 7 7 7 7 7 7 7 8 7 7 8 9 9 8 7
3 3 5 7 6 4 2 2 0 1 1 1 0 1 3 4 7 6 5 6 6 6 8 9 9 8 8 7 7 6 6 6 7 7 7 7 7 6 6 6 7 6 6 7 8 8 8 7 7
3 4 6 6 5 3 2 2 1 2 1 0 2 1 3 4 6 6 5 6 7 8 8 7 7 7 7 6 6 6 6 6 6 6 6 6 6 6 6 6 6 6 6 7 7 7 7 6 6
4 4 5 6 5 3 2 2 2 3 1 2 3 1 3 3 5 5 6 5 6 6 6 6 6 6 6 5 5 5 6 6 6 6 6 5 5 5 5 6 6 6 6 7 7 6 6 5 5
3 4 5 4 4 1 3 1 1 3 2 2 2 3 4 6 5 4 5 4 4 5 5 5 5 5 5 4 5 5 5 6 6 6 6 6 5 5 5 6 7 6 6 6 6 6 5 4 3
3 3 4 3 3 3 2 0 1 1 1 1 2 3 6 5 5 3 3 4 4 3 3 3 4 4 4 3 4 4 4 5 5 5 5 5 5 5 6 6 7 6 6 5 5 5 4 3 2
3 4 3 3 4 4 1 2 2 3 4 3 3 4 5 4 4 3 3 3 4 3 3 3 3 4 4 3 3 3 3 3 3 5 5 5 5 5 6 5 5 5 5 3 4 3 2 2 2
4 4 4 3 3 3 3 3 3 5 3 2 2 3 4 4 4 4 3 3 4 4 3 3 3 3 3 3 2 3 3 3 3 3 4 4 3 3 3 3 3 3 3 3 2 2 2 2 2
6 4 4 3 2 3 4 5 4 6 3 0 2 3 3 4 3 3 3 3 3 4 3 3 3 2 2 3 2 3 2 2 3 2 3 3 3 2 2 2 3 2 3 2 1 2 2 2 1
2 3 4 4 4 4 5 6 5 5 3 3 4 4 5 4 3 2 3 3 3 3 3 3 3 3 2 2 2 2 2 2 2 3 3 3 2 2 2 2 2 2 2 2 2 1 1 1 1
2 4 7 7 7 4 4 7 8 6 4 4 4 4 4 4 3 3 3 3 3 3 3 3 3 3 3 2 2 2 2 3 2 2 3 3 2 2 2 2 2 1 1 1 2 2 2 1 1
5 6 6 6 7 4 4 8 5 4 4 5 5 5 4 4 4 3 3 3 3 3 2 2 2 3 3 2 2 2 2 2 2 2 3 3 2 2 2 1 1 1 1 1 1 1 1 0 0
6 6 7 5 6 4 6 7 3 3 4 5 5 4 4 4 3 3 3 3 3 3 3 2 2 3 3 3 2 2 2 1 1 2 2 2 2 2 2 1 1 1 1 1 0 0 0 0 0
5 6 7 6 4 5 7 8 5 4 5 6 5 5 4 4 4 3 3 4 3 3 3 2 2 2 2 2 2 1 1 1 1 2 2 2 2 2 2 1 1 0 1 0 0 0 0 1 0
6 7 9 5 2 4 8 10 9 6 6 6 6 6 5 4 4 4 4 3 3 3 3 2 2 2 2 2 2 2 2 1 1 1 1 2 2 2 1 1 1 1 1 1 1 0 1 0 0
8 9 8 5 2 4 7 11 9 7 8 7 6 6 6 4 4 5 4 4 3 3 2 2 3 3 2 2 2 2 2 1 1 1 1 1 2 2 2 2 2 1 1 1 1 1 1 0 1
9 8 6 5 5 5 6 8 8 6 5 5 5 5 5 5 4 4 4 3 3 3 3 3 3 3 2 2 2 1 1 1 1 1 1 1 1 2 1 1 1 1 2 2 1 2 2 2 1
7 4 5 4 4 4 4 6 7 7 6 6 6 4 5 4 4 4 4 3 3 2 3 3 3 2 2 3 3 3 2 2 2 2 2 2 2 1 1 1 1 1 1 2 2 2 1 2 1
2 2 4 5 5 6 6 6 6 5 7 7 5 4 4 3 3 3 4 3 2 2 2 2 2 2 2 2 3 3 2 1 1 1 2 2 2 2 2 1 1 1 1 2 2 1 1 1 2
1 2 4 4 3 6 8 7 6 5 7 6 4 4 3 2 2 2 3 3 2 2 2 2 2 2 1 2 2 3 3 2 2 1 2 2 1 2 2 1 1 1 1 1 1 2 2 2 1
3 1 1 2 4 7 4 5 6 2 3 4 4 3 4 3 3 2 2 2 2 2 1 2 2 2 1 2 2 2 3 3 3 2 2 2 2 1 2 1 1 1 1 1 1 1 2 1 1
5 4 4 4 4 3 2 6 4 2 3 4 4 3 3 3 3 2 2 2 2 2 2 2 2 1 1 1 1 2 2 2 2 2 2 2 2 2 2 3 2 2 1 1 1 1 1 1 1
4 5 2 1 3 4 5 4 2 3 4 3 3 3 3 2 2 2 2 2 2 1 2 2 2 2 1 1 1 1 1 1 2 2 1 1 1 1 2 2 2 2 2 1 2 1 2 2 2
3 2 2 3 3 5 5 6 4 5 4 3 2 2 2 2 1 1 2 2 1 1 1 2 2 2 1 1 1 1 1 1 1 1 1 1 1 1 2 2 2 2 2 2 2 2 2 2 3
5 4 4 4 4 3 4 4 0 5 6 5 3 2 2 2 1 1 1 1 1 1 2 2 2 2 2 2 1 0 0 0 1 1 1 1 1 2 2 2 2 2 2 2 2 2 2 3 3
5 6 6 5 5 4 4 5 0 4 4 4 3 2 2 1 1 1 2 1 1 1 2 2 2 1 1 2 1 1 1 1 1 1 0 1 1 2 2 2 2 2 2 2 3 3 3 4 4
Wind_Direction
304 279 259 263 245 232 237 247 251 82 53 37 25 12 30 22 26 97 124 76 84 101 105 109 105 104 101 102 102 100 97 96 94 91 87 86 86 84 85 85 85 86 85 84 84 85 85 85 82
296 283 265 243 244 235 232 215 107 66 65 55 29 351 51 65 70 97 100 78 87 98 103 107 108 105 102 104 105 105 102 101 99 96 94 92 91 89 89 90 87 87 86 84 85 85 85 84 82
278 267 253 239 239 247 258 75 86 87 78 73 83 16 23 53 71 85 88 90 90 93 97 101 111 111 107 105 107 105 103 102 101 100 97 96 95 93 91 92 89 88 87 86 87 87 84 84 83
276 243 241 246 248 265 305 54 83 100 111 72 110 92 64 44 65 87 96 94 97 96 95 101 111 112 112 107 107 106 105 103 102 101 99 99 96 97 96 95 94 94 91 91 91 89 86 83 83
246 247 233 238 244 261 0 44 55 143 161 175 116 92 77 57 78 86 92 90 93 92 96 98 101 106 104 105 101 104 104 106 106 102 100 97 96 97 94 97 99 99 97 97 97 92 89 84 81
257 249 241 232 229 222 152 87 329 273 186 109 316 108 103 94 88 88 90 89 88 92 97 102 98 98 99 100 102 99 105 106 106 105 101 97 92 92 95 97 99 99 101 101 101 97 92 88 82
274 262 256 257 251 230 146 95 259 261 237 212 338 78 125 111 100 95 91 89 89 95 99 103 103 100 98 96 102 106 108 107 105 104 104 98 96 93 94 99 95 100 104 103 101 99 95 90 84
306 287 258 250 251 250 96 80 352 333 348 17 3 54 132 124 107 109 98 87 90 97 102 104 98 96 94 98 97 104 115 115 112 108 102 99 101 97 99 99 96 99 106 109 107 104 99 94 85
292 264 252 258 264 289 94 98 357 350 41 42 30 29 99 124 121 117 113 107 102 96 97 101 97 89 90 104 109 103 105 112 115 110 108 105 94 89 95 103 103 102 103 107 113 114 108 102 94
234 245 259 313 342 348 62 315 264 241 201 195 100 87 112 125 133 144 146 137 127 115 102 97 102 97 81 85 102 103 104 109 111 108 110 101 90 87 89 100 107 105 104 105 112 120 119 110 115
239 245 278 321 358 353 337 281 279 256 244 224 182 146 136 146 157 163 161 138 133 122 106 96 94 96 92 77 88 91 92 96 92 96 96 91 85 84 83 88 89 92 96 89 101 121 119 111 109
257 273 287 305 356 327 290 266 263 265 272 7 56 133 150 168 177 173 167 144 124 117 107 101 90 83 85 89 84 87 75 69 62 81 94 85 82 83 88 87 85 78 78 79 74 83 82 87 102
243 259 276 290 300 282 283 266 253 257 268 286 144 162 179 191 195 168 142 131 125 125 123 120 116 106 92 91 92 94 89 89 82 74 85 84 83 99 81 76 77 67 75 89 75 63 64 68 84
282 274 267 260 248 252 258 262 250 245 219 202 190 187 187 191 186 166 149 155 148 143 141 134 129 126 113 113 112 102 110 110 112 100 93 82 84 89 95 92 79 64 60 79 80 69 73 64 63
263 263 255 237 229 222 252 257 237 229 197 206 204 201 198 192 184 177 166 161 157 151 142 140 139 130 129 130 122 100 110 123 131 115 116 105 87 87 85 107 102 70 78 81 73 59 70 75 50
226 235 242 214 206 192 206 256 239 194 191 211 209 203 200 196 189 171 159 152 152 145 139 141 137 133 139 136 123 101 102 118 126 111 113 117 106 97 83 101 102 81 86 64 92 98 72 59 18
214 233 238 221 202 201 213 257 224 182 199 220 218 208 200 190 183 170 156 147 146 150 150 150 137 140 147 141 129 112 101 99 113 106 110 138 143 125 107 115 83 93 74 50 56 105 153 171 294
234 247 256 243 203 225 237 254 247 217 219 225 223 214 203 192 189 159 146 144 145 150 154 159 143 144 147 143 140 140 140 113 83 105 122 140 144 134 127 126 121 117 128 97 116 193 224 188 233
283 274 272 276 247 240 249 258 257 235 224 230 225 211 198 195 171 152 154 148 143 142 146 161 158 159 157 166 171 183 199 187 154 98 114 132 139 139 130 144 157 142 160 189 202 238 198 237 79
270 267 272 288 274 267 266 266 258 240 226 224 221 206 193 187 169 160 163 161 159 160 168 182 178 173 172 180 186 194 193 184 167 128 122 134 140 145 171 163 171 171 178 188 212 221 183 273 68
255 257 265 279 303 269 270 272 243 234 225 218 217 198 188 181 175 165 163 159 160 168 182 197 193 183 174 164 155 157 153 158 159 178 164 138 156 158 156 172 174 177 180 196 212 216 182 188 257
256 276 279 275 279 265 219 271 248 221 221 219 210 196 182 171 169 164 162 164 171 187 185 190 189 185 168 160 166 169 187 200 204 188 173 159 156 147 138 152 161 178 183 193 215 224 200 167 200
245 335 283 266 259 275 239 245 259 209 224 224 204 182 152 148 142 153 158 155 150 165 172 181 176 179 171 162 175 182 195 201 166 150 148 147 136 133 135 141 139 168 198 191 187 201 195 189 187
229 279 264 253 248 254 224 217 259 211 209 200 186 162 139 129 119 118 121 117 111 110 137 151 156 163 158 158 178 184 183 184 175 172 166 162 156 141 138 144 133 144 155 183 185 190 188 203 192
204 188 258 243 224 240 210 215 243 197 116 153 172 159 142 133 124 120 111 109 123 119 137 148 156 164 162 157 172 186 187 187 188 188 184 184 177 169 173 161 162 165 162 172 168 177 198 197 197
211 192 197 232 244 270 231 229 233 127 104 104 114 127 123 116 117 129 137 137 142 143 151 158 173 175 165 164 180 184 180 182 183 187 188 196 188 180 161 168 174 176 171 180 161 177 190 179 208
198 211 225 260 271 265 242 231 213 113 97 91 92 113 122 125 121 132 126 127 129 148 173 171 172 175 170 161 150 156 160 175 177 173 156 180 180 165 153 162 169 176 178 181 188 190 204 197 208
252 206 151 195 229 255 250 228 218 177 184 167 157 152 148 130 133 136 123 122 131 152 156 134 133 135 117 100 81 128 159 172 159 142 154 171 167 158 159 169 175 188 196 200 199 204 214 216 225
193 200 201 217 232 232 261 255 202 174 175 175 187 192 175 170 176 151 124 127 133 126 134 119 114 108 100 83 41 126 132 140 129 142 168 179 167 170 181 180 188 203 213 215 213 217 219 224 233
223 209 188 199 235 232 250 264 56 115 128 141 164 173 154 151 161 130 128 135 136 130 129 119 111 106 104 96 63 96 84 54 76 107 167 184 182 180 190 182 201 216 227 225 223 230 229 226 231
Height
1496 1497 1499 1502 1503 1503 1500 1490 1483 1486 1488 1491 1493 1493 1496 1500 1503 1513 1513 1511 1511 1511 1512 1512 1513 1514 1515 1517 1518 1519 1520 1521 1522 1523 1524 1525 1526 1527 1527 1528 1529 1529 1530 1531 1531 1532 1532 1533 1533
1496 1498 1501 1501 1503 1505 1497 1487 1486 1489 1492 1494 1495 1496 1497 1502 1505 1509 1510 1511 1511 1511 1512 1512 1513 1515 1515 1517 1518 1519 1520 1521 1522 1523 1524 1525 1526 1527 1528 1528 1529 1530 1530 1531 1531 1532 1532 1533 1534
1496 1498 1501 1499 1498 1499 1494 1486 1488 1491 1493 1495 1497 1498 1501 1505 1507 1509 1510 1511 1511 1512 1512 1513 1514 1515 1515 1517 1518 1519 1520 1521 1522 1523 1524 1525 1526 1527 1528 1528 1529 1530 1530 1531 1531 1532 1532 1533 1534
1498 1499 1499 1499 1496 1491 1489 1488 1489 1492 1495 1496 1498 1501 1503 1507 1507 1508 1509 1511 1511 1512 1512 1513 1514 1514 1515 1517 1518 1518 1520 1521 1522 1523 1524 1525 1526 1527 1527 1528 1529 1530 1530 1530 1531 1531 1532 1533 1534
1498 1498 1498 1498 1494 1489 1488 1489 1490 1492 1495 1497 1498 1501 1504 1507 1507 1508 1509 1511 1511 1511 1512 1512 1513 1514 1515 1516 1517 1518 1519 1520 1521 1522 1523 1524 1525 1526 1527 1528 1528 1529 1530 1530 1530 1531 1532 1533 1534
1498 1496 1499 1498 1492 1488 1488 1490 1492 1493 1495 1496 1498 1501 1505 1507 1506 1508 1509 1510 1511 1511 1512 1512 1513 1514 1515 1516 1517 1518 1519 1520 1521 1522 1523 1523 1524 1525 1526 1527 1528 1528 1529 1530 1530 1530 1531 1532 1533
1498 1496 1495 1492 1491 1489 1489 1490 1493 1494 1495 1497 1498 1501 1504 1506 1506 1507 1508 1510 1510 1511 1511 1512 1513 1513 1514 1515 1516 1517 1518 1519 1520 1521 1522 1523 1523 1524 1525 1526 1527 1528 1529 1529 1530 1530 1531 1532 1532
1497 1496 1492 1491 1491 1490 1489 1491 1493 1495 1496 1498 1499 1500 1503 1505 1505 1507 1508 1509 1510 1510 1510 1511 1511 1512 1513 1514 1515 1516 1517 1518 1519 1520 1521 1522 1522 1523 1524 1525 1526 1527 1528 1528 1529 1529 1530 1531 1532
1497 1499 1496 1491 1490 1490 1490 1492 1494 1495 1496 1498 1499 1500 1502 1503 1505 1506 1507 1508 1509 1509 1510 1510 1510 1511 1512 1513 1514 1515 1516 1517 1518 1519 1520 1521 1521 1522 1523 1524 1525 1526 1526 1527 1528 1529 1530 1530 1531
1496 1498 1493 1490 1489 1491 1491 1493 1495 1496 1496 1498 1499 1500 1501 1502 1503 1504 1506 1506 1507 1508 1508 1509 1509 1510 1510 1511 1512 1513 1514 1515 1516 1517 1518 1519 1520 1521 1522 1523 1524 1524 1525 1526 1527 1528 1529 1529 1530
1494 1494 1491 1490 1491 1492 1492 1494 1495 1495 1496 1497 1498 1499 1499 1501 1502 1503 1504 1505 1506 1506 1507 1507 1508 1508 1509 1510 1510 1512 1513 1514 1514 1516 1517 1517 1518 1519 1520 1521 1522 1523 1524 1525 1525 1526 1527 1528 1529
1493 1492 1491 1492 1492 1493 1493 1494 1495 1495 1495 1495 1496 1497 1498 1499 1500 1501 1502 1503 1504 1504 1505 1506 1506 1507 1507 1508 1509 1510 1511 1512 1513 1514 1515 1516 1517 1517 1518 1519 1520 1521 1522 1523 1524 1525 1526 1527 1527
1493 1492 1492 1492 1493 1493 1493 1493 1493 1493 1494 1494 1495 1495 1496 1497 1499 1500 1501 1501 1502 1502 1503 1504 1504 1505 1506 1506 1507 1508 1509 1509 1511 1511 1513 1514 1515 1515 1516 1517 1518 1519 1520 1521 1522 1523 1524 1524 1525
1492 1491 1491 1492 1492 1492 1492 1491 1492 1490 1491 1492 1493 1493 1494 1495 1497 1498 1498 1499 1500 1500 1501 1502 1502 1503 1504 1505 1505 1505 1506 1507 1508 1509 1510 1512 1512 1513 1514 1515 1516 1517 1518 1519 1520 1521 1521 1522 1523
1492 1493 1491 1489 1489 1490 1491 1490 1488 1487 1489 1490 1490 1491 1492 1493 1494 1495 1496 1497 1497 1498 1499 1499 1500 1500 1501 1502 1503 1504 1504 1505 1506 1507 1508 1509 1510 1511 1512 1513 1514 1515 1516 1517 1518 1518 1519 1520 1521
1491 1492 1491 1485 1486 1487 1492 1490 1484 1484 1485 1487 1488 1489 1489 1490 1491 1492 1493 1494 1495 1496 1496 1497 1498 1498 1499 1500 1500 1501 1502 1503 1504 1504 1505 1506 1508 1509 1510 1511 1511 1512 1513 1514 1515 1516 1517 1517 1518
1490 1491 1487 1484 1483 1483 1487 1486 1482 1482 1483 1484 1485 1486 1486 1487 1488 1489 1490 1491 1492 1493 1494 1495 1495 1496 1496 1497 1498 1499 1500 1501 1501 1501 1502 1504 1505 1506 1508 1509 1509 1510 1511 1512 1513 1514 1514 1515 1515
1488 1486 1483 1482 1481 1482 1484 1483 1480 1480 1481 1481 1482 1483 1483 1484 1485 1486 1487 1489 1489 1490 1491 1492 1493 1493 1494 1494 1495 1496 1497 1498 1498 1499 1500 1501 1503 1504 1505 1506 1507 1508 1509 1510 1510 1511 1512 1512 1513
1483 1484 1483 1481 1480 1482 1482 1480 1477 1476 1477 1477 1478 1479 1480 1481 1482 1483 1484 1486 1486 1487 1488 1489 1489 1490 1491 1491 1492 1493 1494 1495 1496 1496 1498 1499 1500 1501 1502 1503 1504 1505 1506 1507 1507 1508 1509 1510 1510
1483 1484 1483 1481 1480 1481 1480 1477 1473 1472 1472 1473 1474 1475 1476 1478 1479 1480 1481 1482 1483 1484 1484 1485 1486 1487 1488 1488 1489 1490 1491 1492 1493 1494 1495 1496 1497 1498 1499 1500 1501 1502 1503 1504 1505 1506 1506 1507 1508
1482 1483 1482 1483 1482 1479 1481 1478 1471 1467 1468 1469 1470 1471 1473 1474 1476 1477 1478 1479 1480 1481 1481 1482 1483 1484 1485 1486 1487 1487 1488 1489 1490 1491 1492 1493 1494 1495 1496 1497 1498 1499 1500 1500 1501 1502 1503 1504 1505
1484 1481 1481 1483 1487 1486 1481 1485 1468 1465 1465 1465 1466 1468 1469 1471 1473 1474 1475 1476 1477 1478 1479 1479 1480 1481 1482 1483 1483 1484 1485 1486 1487 1488 1488 1490 1491 1491 1492 1494 1495 1496 1496 1497 1498 1499 1500 1501 1501
1481 1481 1482 1483 1485 1487 1480 1484 1470 1462 1463 1462 1463 1465 1467 1469 1470 1471 1472 1473 1474 1475 1476 1476 1477 1478 1479 1480 1481 1481 1482 1483 1484 1485 1486 1487 1488 1489 1490 1490 1491 1492 1493 1494 1495 1495 1496 1497 1498
1481 1482 1483 1484 1487 1490 1476 1478 1468 1460 1457 1459 1461 1463 1464 1466 1468 1469 1470 1471 1471 1472 1472 1473 1474 1475 1476 1477 1477 1478 1479 1480 1481 1481 1482 1483 1485 1485 1486 1487 1488 1489 1489 1490 1491 1492 1493 1494 1495
1481 1486 1490 1488 1488 1481 1468 1471 1464 1454 1454 1456 1458 1461 1463 1465 1465 1466 1467 1468 1468 1469 1469 1470 1471 1472 1473 1474 1474 1475 1476 1477 1478 1478 1479 1480 1481 1482 1483 1484 1485 1485 1486 1487 1487 1488 1489 1490 1491
1479 1481 1488 1487 1480 1473 1472 1470 1460 1454 1454 1455 1457 1460 1462 1463 1464 1464 1465 1465 1466 1466 1467 1468 1469 1469 1470 1471 1472 1472 1473 1474 1475 1476 1477 1477 1478 1479 1480 1481 1482 1482 1483 1483 1484 1484 1485 1486 1487
1477 1479 1478 1483 1482 1482 1469 1458 1456 1454 1455 1457 1458 1459 1460 1462 1462 1463 1463 1463 1463 1464 1464 1465 1466 1467 1468 1468 1469 1470 1471 1471 1472 1473 1474 1474 1475 1476 1477 1478 1478 1479 1479 1480 1480 1481 1482 1482 1483
1475 1476 1481 1484 1482 1475 1462 1458 1458 1457 1457 1457 1458 1458 1460 1461 1461 1461 1462 1462 1462 1462 1462 1463 1464 1464 1465 1466 1466 1467 1468 1469 1469 1470 1470 1471 1472 1473 1474 1474 1475 1476 1476 1477 1478 1478 1478 1479 1480
1476 1477 1477 1478 1475 1475 1470 1460 1448 1450 1452 1455 1456 1457 1458 1459 1460 1460 1460 1460 1460 1461 1461 1461 1461 1462 1463 1463 1464 1465 1465 1466 1466 1466 1467 1468 1469 1470 1470 1471 1472 1472 1473 1474 1474 1474 1475 1475 1476
1470 1471 1474 1479 1477 1472 1471 1464 1448 1448 1449 1452 1455 1456 1457 1458 1458 1459 1459 1459 1459 1459 1459 1459 1459 1460 1460 1461 1462 1462 1462 1463 1463 1464 1464 1465 1465 1466 1467 1468 1468 1469 1470 1470 1471 1471 1471 1472 1472